Weather History for Lafayette, IN

Change the Weather History Date:

Monday, October 3, 2011

  Actual Average Record
Temperature  
Mean Temperature 57 °F 59 °F  
Max Temperature 76 °F 70 °F 89 °F (1983)
Min Temperature 37 °F 47 °F 29 °F (1981)
Degree Days  
Heating Degree Days 8 7  
Month to date heating degree days 38 21  
Since 1 July heating degree days 137 106  
Cooling Degree Days 0 1  
Month to date cooling degree days 0 4  
Year to date cooling degree days 1232 969  
Growing Degree Days 6 (Base 50)    
Moisture  
Dew Point 41 °F    
Average Humidity 67    
Maximum Humidity 100    
Minimum Humidity 33    
Precipitation  
Precipitation 0.00 in 0.11 in 1.68 in (2014)
Month to date precipitation T 0.31  
Year to date precipitation 33.17 28.52  
Sea Level Pressure  
Sea Level Pressure 30.18 in    
Wind  
Wind Speed 5 mph (North)    
Max Wind Speed 15 mph    
Max Gust Speed 22 mph    
Visibility 10 miles    
Events      
T = Trace of Precipitation, MM = Missing Value Source: NWS Daily Summary

Daily Weather History Graph

Daily Weather History Graph

Search for Another Location

Airport:

Trip Planner

Search our weather history database for the weather conditions in past years. The results will help you decide how hot, cold, wet, or windy it might be!

Date:

Astronomy

Oct. 03, 2011 Rise Set
Actual Time 7:45 AM EDT 7:27 PM EDT
Civil Twilight 7:18 AM EDT 7:54 PM EDT
Nautical Twilight 6:47 AM EDT 8:25 PM EDT
Astronomical Twilight 6:15 AM EDT 8:57 PM EDT
Moon 2:44 PM EDT (10/3) No Moon Set
Length of Visible Light 12h 35m
Length of Day
11h 41m
Waxing Crescent, 45% of the Moon is Illuminated
Oct 3
Waxing Crescent
Oct 3
First Quarter
Oct 11
Full
Oct 19
Last Quarter
Oct 26
New

Hourly Weather History & Observations

Time (EDT) Temp. Windchill Dew Point Humidity Pressure Visibility Wind Dir Wind Speed Gust Speed Precip Events Conditions
12:54 AM 41.0 °F 39.0 °F 39.0 °F 93% 30.17 in 10.0 mi West 3.5 mph - N/A   Clear
1:54 AM 42.1 °F - 39.0 °F 89% 30.16 in 10.0 mi Calm Calm - N/A   Clear
2:54 AM 41.0 °F - 37.9 °F 89% 30.16 in 10.0 mi Calm Calm - N/A   Clear
3:54 AM 39.9 °F - 37.9 °F 93% 30.16 in 10.0 mi Calm Calm - N/A   Clear
4:54 AM 39.0 °F - 37.0 °F 93% 30.16 in 10.0 mi Calm Calm - N/A   Clear
5:54 AM 39.9 °F - 37.0 °F 89% 30.17 in 10.0 mi Calm Calm - N/A   Clear
6:54 AM 37.9 °F - 36.0 °F 93% 30.19 in 10.0 mi Calm Calm - N/A   Clear
7:02 AM 37.4 °F - 37.4 °F 100% 30.19 in 9.0 mi Calm Calm - N/A   Scattered Clouds
7:54 AM 37.9 °F - 37.0 °F 97% 30.21 in 10.0 mi Calm Calm - N/A   Clear
8:54 AM 42.1 °F - 39.9 °F 92% 30.21 in 10.0 mi Calm Calm - N/A   Clear
9:54 AM 48.9 °F - 44.1 °F 83% 30.22 in 10.0 mi Calm Calm - N/A   Clear
10:54 AM 57.9 °F - 48.0 °F 70% 30.23 in 10.0 mi Calm Calm - N/A   Clear
11:54 AM 64.9 °F - 46.9 °F 52% 30.20 in 10.0 mi WSW 4.6 mph - N/A   Clear
12:54 PM 70.0 °F - 43.0 °F 38% 30.19 in 10.0 mi North 12.7 mph - N/A   Clear
2:54 PM 73.9 °F - 44.1 °F 34% 30.15 in 10.0 mi North 8.1 mph 16.1 mph N/A   Clear
3:54 PM 75.0 °F - 44.1 °F 33% 30.15 in 10.0 mi North 13.8 mph - N/A   Clear
4:54 PM 75.0 °F - 44.1 °F 33% 30.15 in 10.0 mi North 9.2 mph - N/A   Clear
6:54 PM 70.0 °F - 45.0 °F 41% 30.16 in 10.0 mi NNE 5.8 mph - N/A   Clear
7:54 PM 64.0 °F - 43.0 °F 46% 30.18 in 10.0 mi NNE 6.9 mph - N/A   Clear
8:54 PM 61.0 °F - 42.1 °F 50% 30.19 in 10.0 mi NNE 6.9 mph - N/A   Clear
9:54 PM 57.9 °F - 43.0 °F 58% 30.20 in 10.0 mi NE 9.2 mph - N/A   Clear
10:54 PM 55.0 °F - 43.0 °F 64% 30.22 in 10.0 mi NNE 6.9 mph - N/A   Clear
11:54 PM 52.0 °F - 44.1 °F 74% 30.22 in 10.0 mi NE 4.6 mph - N/A   Clear